HISPASAT 1D

Last updated on March 9, 2019, 3:10 a.m. UTC

1 27528U 02044A   19067.43934715 -.00000224  00000-0  00000+0 0  9991
2 27528   0.0461 350.1422 0005609 358.7593 304.8532  1.00275495 60299
UTC
Height (km)
Latitude
Longitude
Inclination
Orbital Period
UTC large
Height (km)
Speed (km/s)
/
Latitude / Longitude
Inclination (degrees)
Orbital Period (minutes)
Azimuth
Elevation
Range (km)
Doppler Factor
iOS Compass Heading
iOS Angle

Next 30 passes for location: Hong Kong

Rise time Rise Azimuth (degrees) Set time Set Azimuth (degrees) Duration Max altitude (degrees)

No matching passes for this satellites